Location: B�rgermoos
(47.6500°N, 9.0667°E)
Time: 06:17:21
(UTC+00:00)

Vanguard 3 - Pass Details

Date: 03 August 2021
Orbit: 510 x 3260 km, 33.3° (Epoch: 16 September)

Event Time Altitude Azimuth Distance (km) Brightness Sun altitude
Rises 19:56:12 0° 264° (W) 6,214 12.4 -9.4°
Reaches altitude 10° 20:00:06 10° 259° (W) 5,490 11.9 -9.9°
Maximum altitude 20:16:33 47° 193° (SSW) 3,899 10.4 -12.0°
Enters shadow 20:32:00 16° 131° (SE) 5,483 10.7 -13.9°
